Location: Ahstedt
(52.2048°N, 10.1060°E)
Time: 00:31:47
(UTC+00:00)

Cosmos 1763 Rocket - Pass Details

Date: 18 January 2026
Orbit: 729 x 773 km, 74.0° (Epoch: 18 February)

Event Time Altitude Azimuth Distance (km) Brightness Sun altitude
Exits shadow 04:30:56 26° 354° (N) 1,439 4.8 -25.0°
Maximum altitude 04:33:37 52° 59° (ENE) 915 4.1 -24.6°
Drops below altitude 10° 04:38:33 10° 135° (SE) 2,239 6.5 -23.9°
Sets 04:40:58 0° 141° (SE) 3,163 7.3 -23.5°
